Check out our new BloomSky Weather System.

Active alerts


No alerts


Thunder radar  blitzortung!


Rain radar more information rain snow radar


Visit our other weather sites:

Template documentation
and downloads

And another site



Weather Underground History page Text

Daily Summary for January 12, 2017 Units:  English    Metric   Both
« Previous Day
Next Day »
Daily Weekly Monthly Yearly Custom
  High: Low: Average:
Temperature: 81.0 °F 67.6 °F 72.8 °F
Dew Point: 68.5 °F 64.2 °F 66.5 °F
Humidity: 96 % 58 % 82 %
Wind Speed: 13.0 mph 0.0 mph 4.5 mph
Wind Gust: 19.0 mph - -
Wind:- - SSE
Pressure: 30.19 in 30.01 in -
Precipitation: 0.00 in    
Historical Graphs
 
 
Tabular Data for January 12, 2017
Time Temperature Dew Point Pressure Wind Wind Speed Wind Gust Humidity Rainfall Rate (Hourly)
00:02 70.9 °F 67.8 °F 30.01 in SE 8.0 mph 14.0 mph 90 % 0.00 in
00:07 70.9 °F 68.2 °F 30.01 in South 9.0 mph 14.0 mph 91 % 0.00 in
00:12 70.7 °F 68.0 °F 30.01 in SSE 11.0 mph 14.0 mph 91 % 0.00 in
00:17 70.7 °F 68.0 °F 30.01 in SE 10.0 mph 12.0 mph 91 % 0.00 in
00:22 70.7 °F 68.0 °F 30.01 in SSE 6.0 mph 12.0 mph 91 % 0.00 in
00:27 70.7 °F 68.0 °F 30.01 in SE 5.0 mph 12.0 mph 91 % 0.00 in
00:32 70.7 °F 68.0 °F 30.01 in South 3.0 mph 11.0 mph 91 % 0.00 in
00:37 70.5 °F 67.8 °F 30.01 in South 5.0 mph 14.0 mph 91 % 0.00 in
00:42 70.5 °F 67.8 °F 30.01 in South 8.0 mph 14.0 mph 91 % 0.00 in
00:47 70.5 °F 67.8 °F 30.01 in South 4.0 mph 14.0 mph 91 % 0.00 in
00:52 70.5 °F 67.8 °F 30.01 in SE 5.0 mph 12.0 mph 91 % 0.00 in
00:57 70.5 °F 67.8 °F 30.01 in SE 5.0 mph 12.0 mph 91 % 0.00 in
01:02 70.7 °F 67.6 °F 30.01 in South 7.0 mph 12.0 mph 90 % 0.00 in
01:07 70.9 °F 67.8 °F 30.01 in SSE 5.0 mph 13.0 mph 90 % 0.00 in
01:12 71.1 °F 68.0 °F 30.01 in SE 6.0 mph 13.0 mph 90 % 0.00 in
01:17 71.1 °F 67.6 °F 30.01 in SSW 8.0 mph 13.0 mph 89 % 0.00 in
01:22 71.1 °F 67.6 °F 30.01 in SSE 11.0 mph 13.0 mph 89 % 0.00 in
01:27 71.1 °F 67.6 °F 30.01 in SE 11.0 mph 13.0 mph 89 % 0.00 in
01:32 71.2 °F 67.8 °F 30.01 in SSE 6.0 mph 12.0 mph 89 % 0.00 in
01:37 71.2 °F 67.8 °F 30.01 in South 4.0 mph 15.0 mph 89 % 0.00 in
01:42 71.2 °F 67.8 °F 30.01 in SSE 5.0 mph 15.0 mph 89 % 0.00 in
01:47 71.2 °F 67.8 °F 30.01 in South 6.0 mph 15.0 mph 89 % 0.00 in
01:52 71.2 °F 67.5 °F 30.01 in SE 9.0 mph 14.0 mph 88 % 0.00 in
01:57 71.2 °F 67.5 °F 30.01 in SSW 3.0 mph 14.0 mph 88 % 0.00 in
02:02 71.2 °F 67.5 °F 30.01 in SSE 5.0 mph 13.0 mph 88 % 0.00 in
02:07 71.2 °F 67.5 °F 30.01 in South 8.0 mph 11.0 mph 88 % 0.00 in
02:12 71.2 °F 67.5 °F 30.02 in ESE 5.0 mph 12.0 mph 88 % 0.00 in
02:17 71.2 °F 67.5 °F 30.01 in SW 4.0 mph 12.0 mph 88 % 0.00 in
02:22 71.2 °F 67.5 °F 30.02 in South 5.0 mph 12.0 mph 88 % 0.00 in
02:27 71.2 °F 67.5 °F 30.01 in SSW 10.0 mph 11.0 mph 88 % 0.00 in
02:32 71.4 °F 67.6 °F 30.01 in South 7.0 mph 16.0 mph 88 % 0.00 in
02:37 71.4 °F 67.6 °F 30.01 in SSE 8.0 mph 16.0 mph 88 % 0.00 in
02:42 71.2 °F 67.5 °F 30.01 in SSW 2.0 mph 16.0 mph 88 % 0.00 in
02:47 71.2 °F 67.5 °F 30.01 in ESE 7.0 mph 16.0 mph 88 % 0.00 in
02:52 71.1 °F 67.3 °F 30.02 in SE 6.0 mph 16.0 mph 88 % 0.00 in
02:57 71.1 °F 67.6 °F 30.02 in SE 6.0 mph 12.0 mph 89 % 0.00 in
03:02 70.9 °F 67.5 °F 30.02 in South 5.0 mph 12.0 mph 89 % 0.00 in
03:07 70.9 °F 67.5 °F 30.02 in SE 6.0 mph 12.0 mph 89 % 0.00 in
03:12 70.7 °F 67.3 °F 30.02 in SSE 2.0 mph 11.0 mph 89 % 0.00 in
03:17 70.5 °F 67.1 °F 30.02 in SSE 4.0 mph 11.0 mph 89 % 0.00 in
03:22 70.3 °F 67.3 °F 30.02 in SSW 2.0 mph 10.0 mph 90 % 0.00 in
03:27 70.2 °F 67.1 °F 30.02 in ESE 7.0 mph 9.0 mph 90 % 0.00 in
03:32 70.0 °F 67.3 °F 30.02 in SE 1.0 mph 7.0 mph 91 % 0.00 in
03:38 69.6 °F 66.9 °F 30.03 in SSW 3.0 mph 7.0 mph 91 % 0.00 in
03:43 69.6 °F 66.9 °F 30.02 in SE 4.0 mph 7.0 mph 91 % 0.00 in
03:48 69.4 °F 67.1 °F 30.02 in South 3.0 mph 7.0 mph 92 % 0.00 in
03:53 69.4 °F 67.1 °F 30.02 in SE 4.0 mph 7.0 mph 92 % 0.00 in
03:58 69.3 °F 66.9 °F 30.02 in SSE 2.0 mph 6.0 mph 92 % 0.00 in
04:03 69.1 °F 66.9 °F 30.02 in SSE 2.0 mph 6.0 mph 93 % 0.00 in
04:08 69.1 °F 66.9 °F 30.02 in SE 3.0 mph 6.0 mph 93 % 0.00 in
04:13 68.9 °F 66.7 °F 30.02 in SE 2.0 mph 7.0 mph 93 % 0.00 in
04:18 68.9 °F 66.7 °F 30.02 in South 5.0 mph 7.0 mph 93 % 0.00 in
04:23 68.9 °F 67.1 °F 30.02 in South 3.0 mph 7.0 mph 94 % 0.00 in
04:28 68.9 °F 67.1 °F 30.02 in SSE 3.0 mph 7.0 mph 94 % 0.00 in
04:33 68.9 °F 67.1 °F 30.02 in South 4.0 mph 7.0 mph 94 % 0.00 in
04:38 68.9 °F 67.1 °F 30.02 in SSE 5.0 mph 7.0 mph 94 % 0.00 in
04:43 68.9 °F 67.1 °F 30.02 in SE 4.0 mph 14.0 mph 94 % 0.00 in
04:48 68.7 °F 66.9 °F 30.02 in South 3.0 mph 14.0 mph 94 % 0.00 in
04:53 68.5 °F 66.7 °F 30.02 in SSE 4.0 mph 14.0 mph 94 % 0.00 in
04:58 68.5 °F 66.7 °F 30.02 in South 3.0 mph 8.0 mph 94 % 0.00 in
05:03 68.5 °F 67.1 °F 30.02 in South 2.0 mph 9.0 mph 95 % 0.00 in
05:08 68.5 °F 67.1 °F 30.02 in SSW 5.0 mph 9.0 mph 95 % 0.00 in
05:13 68.5 °F 67.1 °F 30.02 in South 3.0 mph 9.0 mph 95 % 0.00 in
05:18 68.5 °F 67.1 °F 30.02 in SSE 3.0 mph 7.0 mph 95 % 0.00 in
05:23 68.5 °F 67.1 °F 30.02 in SSW 3.0 mph 7.0 mph 95 % 0.00 in
05:28 68.5 °F 67.1 °F 30.02 in SSE 3.0 mph 7.0 mph 95 % 0.00 in
05:33 68.5 °F 67.1 °F 30.03 in SSE 6.0 mph 7.0 mph 95 % 0.00 in
05:38 68.5 °F 67.1 °F 30.03 in SSE 2.0 mph 6.0 mph 95 % 0.00 in
05:43 68.5 °F 67.1 °F 30.03 in SSE 4.0 mph 7.0 mph 95 % 0.00 in
05:48 68.4 °F 66.9 °F 30.03 in SSE 3.0 mph 7.0 mph 95 % 0.00 in
05:53 68.4 °F 66.9 °F 30.03 in ESE 2.0 mph 7.0 mph 95 % 0.00 in
05:58 68.2 °F 66.7 °F 30.03 in SSE 2.0 mph 6.0 mph 95 % 0.00 in
06:03 68.0 °F 66.6 °F 30.03 in SSE 3.0 mph 5.0 mph 95 % 0.00 in
06:08 67.8 °F 66.4 °F 30.03 in SE 5.0 mph 5.0 mph 95 % 0.00 in
06:13 67.8 °F 66.6 °F 30.04 in ESE 4.0 mph 6.0 mph 96 % 0.00 in
06:18 67.8 °F 66.6 °F 30.04 in SE 2.0 mph 6.0 mph 96 % 0.00 in
06:23 67.8 °F 66.6 °F 30.04 in SE 1.0 mph 6.0 mph 96 % 0.00 in
06:28 67.8 °F 66.6 °F 30.04 in SSE 2.0 mph 5.0 mph 96 % 0.00 in
06:33 67.8 °F 66.6 °F 30.04 in SE 1.0 mph 5.0 mph 96 % 0.00 in
06:38 67.8 °F 66.6 °F 30.04 in South 2.0 mph 4.0 mph 96 % 0.00 in
06:43 67.8 °F 66.6 °F 30.04 in SSE 2.0 mph 4.0 mph 96 % 0.00 in
06:48 67.6 °F 66.4 °F 30.05 in SE 5.0 mph 6.0 mph 96 % 0.00 in
06:53 67.6 °F 66.4 °F 30.04 in SSW 4.0 mph 6.0 mph 96 % 0.00 in
06:58 67.6 °F 66.4 °F 30.04 in SSE 1.0 mph 6.0 mph 96 % 0.00 in
07:03 67.6 °F 66.4 °F 30.04 in SSE 2.0 mph 5.0 mph 96 % 0.00 in
07:08 67.6 °F 66.4 °F 30.04 in ESE 4.0 mph 5.0 mph 96 % 0.00 in
07:14 67.6 °F 66.4 °F 30.05 in ESE 3.0 mph 6.0 mph 96 % 0.00 in
07:19 67.6 °F 66.4 °F 30.05 in SE 3.0 mph 6.0 mph 96 % 0.00 in
07:24 67.6 °F 66.4 °F 30.06 in SSE 2.0 mph 7.0 mph 96 % 0.00 in
07:29 67.6 °F 66.4 °F 30.06 in ESE 2.0 mph 7.0 mph 96 % 0.00 in
07:34 67.6 °F 66.4 °F 30.06 in SSE 2.0 mph 7.0 mph 96 % 0.00 in
07:39 67.8 °F 66.6 °F 30.07 in SE 4.0 mph 6.0 mph 96 % 0.00 in
07:44 67.8 °F 66.6 °F 30.07 in SSE 2.0 mph 6.0 mph 96 % 0.00 in
07:49 67.8 °F 66.6 °F 30.07 in SSE 3.0 mph 5.0 mph 96 % 0.00 in
07:54 67.8 °F 66.4 °F 30.07 in SSE 1.0 mph 5.0 mph 95 % 0.00 in
07:59 68.0 °F 66.6 °F 30.07 in SSE 2.0 mph 6.0 mph 95 % 0.00 in
08:04 68.2 °F 66.7 °F 30.07 in SSE 2.0 mph 6.0 mph 95 % 0.00 in
08:09 68.2 °F 66.7 °F 30.08 in SSE 2.0 mph 6.0 mph 95 % 0.00 in
08:14 68.4 °F 66.9 °F 30.08 in SE 2.0 mph 7.0 mph 95 % 0.00 in
08:19 68.5 °F 67.1 °F 30.08 in SSW 4.0 mph 7.0 mph 95 % 0.00 in
08:24 68.5 °F 67.1 °F 30.08 in SE 4.0 mph 7.0 mph 95 % 0.00 in
08:29 68.7 °F 66.9 °F 30.08 in SE 3.0 mph 6.0 mph 94 % 0.00 in
08:34 69.1 °F 67.3 °F 30.09 in SSE 5.0 mph 6.0 mph 94 % 0.00 in
08:39 69.3 °F 67.5 °F 30.09 in SE 2.0 mph 6.0 mph 94 % 0.00 in
08:44 69.6 °F 67.8 °F 30.09 in East 4.0 mph 8.0 mph 94 % 0.00 in
08:49 69.8 °F 67.6 °F 30.09 in ESE 1.0 mph 8.0 mph 93 % 0.00 in
08:54 70.0 °F 67.8 °F 30.10 in ESE 5.0 mph 8.0 mph 93 % 0.00 in
08:59 70.0 °F 67.5 °F 30.10 in SSE 6.0 mph 7.0 mph 92 % 0.00 in
09:04 70.2 °F 67.6 °F 30.10 in SE 2.0 mph 8.0 mph 92 % 0.00 in
09:09 70.3 °F 67.8 °F 30.11 in ESE 3.0 mph 8.0 mph 92 % 0.00 in
09:14 70.5 °F 67.8 °F 30.11 in South 4.0 mph 10.0 mph 91 % 0.00 in
09:19 70.9 °F 68.2 °F 30.11 in ESE 6.0 mph 10.0 mph 91 % 0.00 in
09:24 71.1 °F 68.0 °F 30.12 in SE 6.0 mph 10.0 mph 90 % 0.00 in
09:29 71.4 °F 68.0 °F 30.12 in South 6.0 mph 10.0 mph 89 % 0.00 in
09:34 71.6 °F 68.2 °F 30.12 in SSW 6.0 mph 13.0 mph 89 % 0.00 in
09:39 72.0 °F 68.2 °F 30.12 in SE 6.0 mph 13.0 mph 88 % 0.00 in
09:44 72.3 °F 68.5 °F 30.12 in SSE 4.0 mph 13.0 mph 88 % 0.00 in
09:50 72.7 °F 68.2 °F 30.12 in East 13.0 mph 13.0 mph 86 % 0.00 in
09:55 73.2 °F 68.4 °F 30.12 in SW 10.0 mph 13.0 mph 85 % 0.00 in
10:00 73.8 °F 68.5 °F 30.12 in SSE 4.0 mph 13.0 mph 84 % 0.00 in
10:05 74.1 °F 68.0 °F 30.12 in SSE 8.0 mph 13.0 mph 81 % 0.00 in
10:10 74.5 °F 68.2 °F 30.13 in SSW 3.0 mph 13.0 mph 81 % 0.00 in
10:15 74.5 °F 67.8 °F 30.13 in South 6.0 mph 13.0 mph 80 % 0.00 in
10:20 74.7 °F 68.0 °F 30.13 in SSW 8.0 mph 14.0 mph 80 % 0.00 in
10:25 75.0 °F 67.6 °F 30.13 in SSW 6.0 mph 14.0 mph 78 % 0.00 in
10:30 75.2 °F 67.5 °F 30.13 in South 5.0 mph 14.0 mph 77 % 0.00 in
10:35 75.6 °F 67.8 °F 30.13 in South 7.0 mph 12.0 mph 77 % 0.00 in
10:40 76.1 °F 67.6 °F 30.13 in SSE 10.0 mph 12.0 mph 75 % 0.00 in
10:45 76.5 °F 67.1 °F 30.13 in South 8.0 mph 13.0 mph 73 % 0.00 in
10:50 76.8 °F 66.7 °F 30.13 in SSW 9.0 mph 15.0 mph 71 % 0.00 in
10:55 77.0 °F 66.9 °F 30.13 in SSE 8.0 mph 15.0 mph 71 % 0.00 in
11:00 77.4 °F 66.4 °F 30.13 in SSW 7.0 mph 15.0 mph 69 % 0.00 in
11:05 77.5 °F 65.7 °F 30.13 in SE 10.0 mph 17.0 mph 67 % 0.00 in
11:10 77.5 °F 65.7 °F 30.13 in SE 12.0 mph 19.0 mph 67 % 0.00 in
11:15 77.7 °F 65.8 °F 30.13 in SE 6.0 mph 19.0 mph 67 % 0.00 in
11:20 77.9 °F 65.1 °F 30.13 in SSE 8.0 mph 19.0 mph 65 % 0.00 in
11:25 77.7 °F 65.5 °F 30.13 in SSE 7.0 mph 14.0 mph 66 % 0.00 in
11:30 78.1 °F 65.3 °F 30.13 in SE 7.0 mph 14.0 mph 65 % 0.00 in
11:35 78.3 °F 65.5 °F 30.12 in SSE 8.0 mph 14.0 mph 65 % 0.00 in
11:40 78.4 °F 65.3 °F 30.12 in SE 5.0 mph 13.0 mph 64 % 0.00 in
11:45 79.0 °F 65.3 °F 30.12 in SSE 8.0 mph 14.0 mph 63 % 0.00 in
11:50 79.3 °F 65.7 °F 30.12 in South 10.0 mph 14.0 mph 63 % 0.00 in
11:55 79.3 °F 65.7 °F 30.12 in SW 3.0 mph 14.0 mph 63 % 0.00 in
12:00 79.0 °F 65.8 °F 30.12 in SSE 6.0 mph 12.0 mph 64 % 0.00 in
12:05 79.0 °F 65.8 °F 30.11 in SSW 8.0 mph 12.0 mph 64 % 0.00 in
12:10 78.6 °F 65.5 °F 30.11 in SE 8.0 mph 13.0 mph 64 % 0.00 in
12:15 79.0 °F 65.8 °F 30.11 in South 3.0 mph 13.0 mph 64 % 0.00 in
12:20 78.8 °F 65.7 °F 30.11 in SSW 6.0 mph 15.0 mph 64 % 0.00 in
12:25 78.8 °F 65.1 °F 30.11 in SSE 6.0 mph 15.0 mph 63 % 0.00 in
12:30 78.4 °F 64.8 °F 30.10 in SSE 5.0 mph 15.0 mph 63 % 0.00 in
12:35 78.6 °F 65.5 °F 30.10 in SSE 5.0 mph 12.0 mph 64 % 0.00 in
12:40 79.3 °F 65.7 °F 30.10 in SE 7.0 mph 12.0 mph 63 % 0.00 in
12:45 79.7 °F 65.5 °F 30.09 in SE 7.0 mph 12.0 mph 62 % 0.00 in
12:51 79.7 °F 65.5 °F 30.09 in SSW 6.0 mph 11.0 mph 62 % 0.00 in
12:56 79.5 °F 65.3 °F 30.09 in SE 12.0 mph 12.0 mph 62 % 0.00 in
13:01 79.3 °F 65.1 °F 30.09 in SSW 6.0 mph 13.0 mph 62 % 0.00 in
13:06 79.7 °F 65.5 °F 30.09 in SSE 5.0 mph 13.0 mph 62 % 0.00 in
13:11 79.9 °F 64.2 °F 30.09 in SSE 3.0 mph 14.0 mph 59 % 0.00 in
13:16 79.5 °F 64.4 °F 30.09 in ESE 7.0 mph 14.0 mph 60 % 0.00 in
13:21 79.7 °F 65.1 °F 30.08 in SSE 6.0 mph 14.0 mph 61 % 0.00 in
13:26 79.5 °F 64.4 °F 30.09 in SSW 6.0 mph 18.0 mph 60 % 0.00 in
13:31 79.9 °F 65.3 °F 30.08 in SSE 4.0 mph 18.0 mph 61 % 0.00 in
13:36 80.6 °F 64.4 °F 30.08 in SE 3.0 mph 18.0 mph 58 % 0.00 in
13:41 80.6 °F 64.4 °F 30.08 in SE 6.0 mph 12.0 mph 58 % 0.00 in
13:46 79.9 °F 64.2 °F 30.08 in East 6.0 mph 13.0 mph 59 % 0.00 in
13:51 80.1 °F 64.4 °F 30.08 in South 7.0 mph 13.0 mph 59 % 0.00 in
13:56 80.1 °F 64.4 °F 30.08 in SSE 8.0 mph 14.0 mph 59 % 0.00 in
14:01 80.4 °F 64.8 °F 30.08 in ESE 5.0 mph 14.0 mph 59 % 0.00 in
14:06 80.1 °F 65.5 °F 30.08 in South 5.0 mph 14.0 mph 61 % 0.00 in
14:11 80.2 °F 65.1 °F 30.08 in SE 7.0 mph 13.0 mph 60 % 0.00 in
14:16 79.5 °F 64.9 °F 30.08 in SSE 5.0 mph 18.0 mph 61 % 0.00 in
14:21 79.3 °F 65.1 °F 30.08 in SSW 6.0 mph 18.0 mph 62 % 0.00 in
14:26 79.5 °F 65.3 °F 30.08 in SSW 3.0 mph 18.0 mph 62 % 0.00 in
14:31 79.9 °F 65.3 °F 30.08 in South 5.0 mph 13.0 mph 61 % 0.00 in
14:36 80.1 °F 64.9 °F 30.08 in SE 8.0 mph 13.0 mph 60 % 0.00 in
14:41 80.8 °F 65.1 °F 30.08 in SE 6.0 mph 13.0 mph 59 % 0.00 in
14:46 80.8 °F 65.1 °F 30.08 in SE 6.0 mph 12.0 mph 59 % 0.00 in
14:51 80.8 °F 65.1 °F 30.08 in SE 7.0 mph 12.0 mph 59 % 0.00 in
14:56 80.8 °F 65.1 °F 30.08 in ESE 6.0 mph 12.0 mph 59 % 0.00 in
15:01 81.0 °F 65.3 °F 30.08 in East 7.0 mph 14.0 mph 59 % 0.00 in
15:06 81.0 °F 65.3 °F 30.08 in ESE 5.0 mph 14.0 mph 59 % 0.00 in
15:11 80.6 °F 64.9 °F 30.08 in SE 9.0 mph 14.0 mph 59 % 0.00 in
15:16 80.1 °F 64.4 °F 30.08 in SSE 5.0 mph 11.0 mph 59 % 0.00 in
15:21 79.9 °F 64.8 °F 30.08 in NE 3.0 mph 11.0 mph 60 % 0.00 in
15:26 80.2 °F 65.1 °F 30.08 in SSE 5.0 mph 9.0 mph 60 % 0.00 in
15:31 80.4 °F 64.8 °F 30.08 in SSE 6.0 mph 13.0 mph 59 % 0.00 in
15:36 80.2 °F 65.1 °F 30.09 in SE 5.0 mph 13.0 mph 60 % 0.00 in
15:41 79.7 °F 65.5 °F 30.09 in SE 2.0 mph 13.0 mph 62 % 0.00 in
15:46 79.3 °F 65.1 °F 30.09 in SE 4.0 mph 12.0 mph 62 % 0.00 in
15:51 79.2 °F 65.5 °F 30.09 in SSE 1.0 mph 12.0 mph 63 % 0.00 in
15:56 79.7 °F 65.1 °F 30.09 in South 4.0 mph 10.0 mph 61 % 0.00 in
16:01 79.7 °F 65.1 °F 30.09 in SE 8.0 mph 12.0 mph 61 % 0.00 in
16:06 79.3 °F 65.1 °F 30.09 in SE 10.0 mph 13.0 mph 62 % 0.00 in
16:11 79.0 °F 65.3 °F 30.09 in SE 4.0 mph 13.0 mph 63 % 0.00 in
16:16 79.0 °F 65.3 °F 30.09 in East 4.0 mph 13.0 mph 63 % 0.00 in
16:21 78.8 °F 65.1 °F 30.09 in SE 5.0 mph 11.0 mph 63 % 0.00 in
16:26 78.8 °F 65.7 °F 30.10 in ESE 8.0 mph 11.0 mph 64 % 0.00 in
16:31 79.0 °F 65.8 °F 30.09 in ESE 6.0 mph 13.0 mph 64 % 0.00 in
16:36 78.6 °F 65.5 °F 30.10 in SSE 6.0 mph 13.0 mph 64 % 0.00 in
16:41 78.4 °F 65.3 °F 30.09 in SSW 9.0 mph 13.0 mph 64 % 0.00 in
16:46 78.1 °F 65.3 °F 30.10 in SSE 7.0 mph 13.0 mph 65 % 0.00 in
16:51 77.7 °F 64.9 °F 30.10 in SW 4.0 mph 13.0 mph 65 % 0.00 in
16:56 77.4 °F 65.1 °F 30.10 in East 9.0 mph 13.0 mph 66 % 0.00 in
17:01 77.2 °F 64.9 °F 30.10 in SSE 7.0 mph 12.0 mph 66 % 0.00 in
17:06 77.0 °F 65.1 °F 30.10 in South 7.0 mph 14.0 mph 67 % 0.00 in
17:12 76.8 °F 64.9 °F 30.10 in South 6.0 mph 14.0 mph 67 % 0.00 in
17:16 76.6 °F 64.9 °F 30.10 in SE 4.0 mph 14.0 mph 67 % 0.00 in
17:22 76.5 °F 65.1 °F 30.11 in ESE 3.0 mph 12.0 mph 68 % 0.00 in
17:27 76.3 °F 65.3 °F 30.11 in SSE 5.0 mph 11.0 mph 69 % 0.00 in
17:32 75.9 °F 65.5 °F 30.11 in SSE 7.0 mph 11.0 mph 70 % 0.00 in
17:37 75.7 °F 65.3 °F 30.11 in SE 4.0 mph 11.0 mph 70 % 0.00 in
17:41 75.6 °F 65.5 °F 30.11 in SSE 3.0 mph 11.0 mph 71 % 0.00 in
17:46 75.4 °F 65.7 °F 30.11 in SE 4.0 mph 9.0 mph 72 % 0.00 in
17:52 75.0 °F 65.3 °F 30.11 in ESE 6.0 mph 7.0 mph 72 % 0.00 in
17:57 75.0 °F 65.3 °F 30.12 in SSE 3.0 mph 10.0 mph 72 % 0.00 in
18:02 74.8 °F 65.1 °F 30.12 in SE 5.0 mph 10.0 mph 72 % 0.00 in
18:07 74.7 °F 65.5 °F 30.12 in SW 4.0 mph 11.0 mph 73 % 0.00 in
18:12 74.3 °F 65.1 °F 30.12 in ESE 3.0 mph 11.0 mph 73 % 0.00 in
18:17 74.1 °F 64.9 °F 30.12 in SSE 4.0 mph 11.0 mph 73 % 0.00 in
18:22 73.9 °F 64.8 °F 30.13 in SE 4.0 mph 9.0 mph 73 % 0.00 in
18:27 73.8 °F 64.9 °F 30.13 in SE 4.0 mph 8.0 mph 74 % 0.00 in
18:32 73.6 °F 65.1 °F 30.13 in East 3.0 mph 7.0 mph 75 % 0.00 in
18:37 73.2 °F 65.1 °F 30.13 in SE 3.0 mph 7.0 mph 76 % 0.00 in
18:42 73.0 °F 64.9 °F 30.13 in ESE 6.0 mph 7.0 mph 76 % 0.00 in
18:47 73.0 °F 65.5 °F 30.13 in ESE 3.0 mph 9.0 mph 77 % 0.00 in
18:52 72.9 °F 65.3 °F 30.13 in SE 3.0 mph 9.0 mph 77 % 0.00 in
18:57 72.7 °F 65.5 °F 30.13 in SSE 1.0 mph 9.0 mph 78 % 0.00 in
19:02 72.5 °F 65.7 °F 30.14 in SE 1.0 mph 6.0 mph 79 % 0.00 in
19:07 72.3 °F 65.8 °F 30.14 in SSE 1.0 mph 6.0 mph 80 % 0.00 in
19:12 72.1 °F 65.7 °F 30.14 in SE 3.0 mph 7.0 mph 80 % 0.00 in
19:17 72.0 °F 65.8 °F 30.14 in ESE 2.0 mph 7.0 mph 81 % 0.00 in
19:22 72.0 °F 65.8 °F 30.15 in SE 3.0 mph 7.0 mph 81 % 0.00 in
19:27 71.8 °F 66.0 °F 30.15 in SE 1.0 mph 6.0 mph 82 % 0.00 in
19:32 71.8 °F 66.4 °F 30.15 in ESE 5.0 mph 6.0 mph 83 % 0.00 in
19:37 71.6 °F 66.2 °F 30.15 in East 4.0 mph 7.0 mph 83 % 0.00 in
19:42 71.4 °F 66.0 °F 30.15 in SE 2.0 mph 7.0 mph 83 % 0.00 in
19:47 71.2 °F 65.8 °F 30.16 in SE 1.0 mph 7.0 mph 83 % 0.00 in
19:52 71.1 °F 66.0 °F 30.16 in ESE 1.0 mph 5.0 mph 84 % 0.00 in
19:57 70.7 °F 65.7 °F 30.16 in ESE 2.0 mph 3.0 mph 84 % 0.00 in
20:02 70.5 °F 65.8 °F 30.16 in ESE 2.0 mph 3.0 mph 85 % 0.00 in
20:07 70.3 °F 66.0 °F 30.16 in SE 1.0 mph 3.0 mph 86 % 0.00 in
20:12 70.2 °F 65.8 °F 30.16 in ESE 1.0 mph 5.0 mph 86 % 0.00 in
20:17 70.0 °F 66.0 °F 30.17 in Calm   5.0 mph 87 % 0.00 in
20:21 69.6 °F 65.8 °F 30.17 in SSE 2.0 mph 5.0 mph 88 % 0.00 in
20:26 69.6 °F 66.2 °F 30.17 in ESE 1.0 mph 4.0 mph 89 % 0.00 in
20:31 69.4 °F 66.4 °F 30.17 in ESE 1.0 mph 4.0 mph 90 % 0.00 in
20:37 69.4 °F 66.4 °F 30.17 in ESE 3.0 mph 4.0 mph 90 % 0.00 in
20:42 69.3 °F 66.6 °F 30.17 in SSE 2.0 mph 5.0 mph 91 % 0.00 in
20:47 69.1 °F 66.4 °F 30.17 in ESE 2.0 mph 5.0 mph 91 % 0.00 in
20:52 69.1 °F 66.7 °F 30.17 in East 2.0 mph 5.0 mph 92 % 0.00 in
20:57 68.7 °F 66.6 °F 30.17 in ESE 3.0 mph 5.0 mph 93 % 0.00 in
21:02 68.9 °F 66.7 °F 30.17 in ESE 6.0 mph 7.0 mph 93 % 0.00 in
21:07 68.7 °F 66.9 °F 30.17 in ESE 3.0 mph 7.0 mph 94 % 0.00 in
21:12 68.9 °F 67.1 °F 30.18 in SSE 3.0 mph 7.0 mph 94 % 0.00 in
21:17 68.9 °F 67.1 °F 30.18 in East 3.0 mph 9.0 mph 94 % 0.00 in
21:22 68.9 °F 67.1 °F 30.18 in ESE 2.0 mph 9.0 mph 94 % 0.00 in
21:27 68.7 °F 67.3 °F 30.18 in SE 2.0 mph 9.0 mph 95 % 0.00 in
21:32 68.7 °F 67.3 °F 30.18 in SE 3.0 mph 9.0 mph 95 % 0.00 in
21:37 68.7 °F 67.3 °F 30.18 in ESE 1.0 mph 9.0 mph 95 % 0.00 in
21:42 68.7 °F 67.3 °F 30.18 in ESE 2.0 mph 8.0 mph 95 % 0.00 in
21:47 68.7 °F 67.3 °F 30.19 in East 3.0 mph 7.0 mph 95 % 0.00 in
21:52 68.7 °F 67.3 °F 30.18 in SSE 4.0 mph 7.0 mph 95 % 0.00 in
21:57 68.7 °F 67.3 °F 30.18 in ESE 3.0 mph 7.0 mph 95 % 0.00 in
22:02 68.7 °F 67.3 °F 30.19 in SE 4.0 mph 8.0 mph 95 % 0.00 in
22:07 68.9 °F 67.5 °F 30.19 in East 4.0 mph 8.0 mph 95 % 0.00 in
22:12 68.9 °F 67.5 °F 30.19 in ESE 3.0 mph 8.0 mph 95 % 0.00 in
22:17 69.1 °F 67.8 °F 30.19 in SE 5.0 mph 7.0 mph 96 % 0.00 in
22:22 69.1 °F 67.8 °F 30.19 in SE 1.0 mph 7.0 mph 96 % 0.00 in
22:27 69.1 °F 67.6 °F 30.19 in East 2.0 mph 7.0 mph 95 % 0.00 in
22:32 69.1 °F 67.8 °F 30.19 in ESE 1.0 mph 6.0 mph 96 % 0.00 in
22:37 69.3 °F 68.0 °F 30.19 in SE 2.0 mph 6.0 mph 96 % 0.00 in
22:42 69.3 °F 68.0 °F 30.19 in SE 2.0 mph 6.0 mph 96 % 0.00 in
22:47 69.3 °F 68.0 °F 30.19 in SE 4.0 mph 6.0 mph 96 % 0.00 in
22:52 69.3 °F 68.0 °F 30.19 in ESE 2.0 mph 6.0 mph 96 % 0.00 in
22:57 69.4 °F 68.2 °F 30.19 in SE 3.0 mph 6.0 mph 96 % 0.00 in
23:02 69.4 °F 68.2 °F 30.19 in East 3.0 mph 6.0 mph 96 % 0.00 in
23:07 69.4 °F 68.2 °F 30.19 in ESE 3.0 mph 6.0 mph 96 % 0.00 in
23:12 69.4 °F 68.2 °F 30.19 in East 3.0 mph 6.0 mph 96 % 0.00 in
23:17 69.4 °F 68.2 °F 30.19 in SSE 2.0 mph 6.0 mph 96 % 0.00 in
23:22 69.4 °F 68.2 °F 30.19 in East 2.0 mph 6.0 mph 96 % 0.00 in
23:27 69.4 °F 68.2 °F 30.19 in East 6.0 mph 6.0 mph 96 % 0.00 in
23:32 69.4 °F 68.2 °F 30.19 in ESE 4.0 mph 6.0 mph 96 % 0.00 in
23:37 69.4 °F 68.2 °F 30.19 in East 3.0 mph 6.0 mph 96 % 0.00 in
23:42 69.4 °F 68.2 °F 30.19 in East 3.0 mph 6.0 mph 96 % 0.00 in
23:47 69.4 °F 68.2 °F 30.19 in ESE 4.0 mph 6.0 mph 96 % 0.00 in
23:52 69.6 °F 68.4 °F 30.19 in ESE 5.0 mph 6.0 mph 96 % 0.00 in
23:57 69.6 °F 68.4 °F 30.19 in ESE 3.0 mph 8.0 mph 96 % 0.00 in
Spring, Texas: Villages of Bridgestone
Compliments of Weather Underground - 3 mb

Script developed by  Jim McMurry - jmcmurry@mwt.net Adapted for the template by  Wim van der Kuil - Leuven-Template.eu

You find our weather info also at:

UK Metoffice

WeatherCloud

Weather Underground

Mid-South Weather Network

AWEKAS

Citizen Weather Observer Program (CWOP)

HAMweather, WeatherForYou, PWS Weather

Equipment we use:

Weather-station
Davis Vantage Vue

Weather-program
Meteohub

Weather-server
Debian 7.9 x86 (Guest)

Provider
DreamHost

Davis Vantage Vue

Meteohub

Debian 7.9 x86 (Guest)

DreamHost